[[{"header":{"parameterUnit":"m.s-1","parameterCategory":1,"la1":30.2991,"la2":30.254,"lo1":-89.0895,"lo2":-89.0444,"dy":0.0017,"dx":0.0017,"nx":28,"ny":28,"refTime":"2025-04-01T03:00:00:Z","depth":0,"parameterNumber":2,"parameterNumberName":"U-component_of_WINDS"},"data":[0,0,0,0,0,0,0,0,0,0,0,0,0,0,0,0,0,0,0,0,0,0,0,0,0,0,0,0,0,0,0,0,0,0,0,0,0,0,0,0,0,0,0,0,0,0,0,0,0,0,0,0,0,0,0,0,0,0,-5.1322,-5.1323,0,-5.1461,-5.1462,-5.1464,-5.1506,-5.1505,-5.1504,-5.1503,-5.164,-5.1644,-5.1648,0,0,0,0,0,0,0,0,0,0,0,0,0,-5.1086,-5.109,-5.1321,-5.1323,-5.1325,-5.146,-5.1462,-5.1464,-5.1506,-5.1505,-5.1504,-5.1503,-5.1638,-5.1643,-5.1649,0,0,0,0,0,0,0,0,0,0,0,0,0,-5.1203,-5.1092,-5.1321,-5.1362,-5.1367,-5.146,-5.1462,-5.1465,-5.1506,-5.1505,-5.1504,-5.1503,-5.1637,-5.1643,-5.1649,-5.171,0,0,-5.1669,-5.1672,0,0,0,0,0,0,0,0,-5.1196,-5.1212,-5.1354,-5.1359,-5.1365,-5.1465,-5.143,-5.1547,-5.1506,-5.1453,-5.1503,-5.1502,-5.1582,-5.1593,-5.1621,-5.1716,-5.1722,-5.1669,-5.1673,-5.1676,-5.1678,0,0,0,0,0,0,0,-5.1188,-5.1206,-5.1376,-5.1356,-5.1363,-5.1372,-5.1387,-5.1452,-5.1521,-5.1457,-5.1461,-5.1477,-5.1585,-5.1615,-5.1625,-5.1724,-5.1669,-5.1675,-5.1679,-5.1681,-5.1876,-5.1877,0,0,0,0,0,0,-5.1174,-5.1199,-5.1372,-5.1381,-5.1277,-5.1377,-5.1394,-5.1434,-5.1521,-5.1533,-5.1478,-5.1479,-5.1604,-5.1617,-5.1629,-5.1706,-5.1676,-5.1682,-5.1686,-5.1874,-5.1876,-5.1877,0,0,0,0,0,0,-5.1169,-5.1189,-5.1366,-5.1291,-5.1314,-5.1382,-5.1426,-5.1437,-5.1467,-5.1536,-5.1548,-5.1496,-5.1604,-5.162,-5.169,-5.1711,-5.1685,-5.1691,-5.1873,-5.1875,-5.1877,-5.1858,0,0,0,0,0,0,-5.1162,-5.1187,-5.1212,-5.1291,-5.1318,-5.1426,-5.1428,-5.1441,-5.1479,-5.1481,-5.1557,-5.1568,-5.1604,-5.168,-5.1696,-5.1719,-5.1696,-5.1871,-5.1874,-5.1876,-5.1857,-5.1859,-5.1861,0,0,0,0,0,-5.1153,-5.1199,-5.1213,-5.1233,-5.135,-5.1427,-5.1442,-5.1485,-5.148,-5.1505,-5.155,-5.1566,-5.1707,-5.1687,-5.1705,-5.1731,-5.187,-5.1873,-5.1876,-5.1856,-5.1859,-5.1861,0,0,0,0,0,0,-5.1118,-5.121,-5.1226,-5.13,-5.1355,-5.1434,-5.1466,-5.1486,-5.1542,-5.1542,-5.1591,-5.1607,-5.1673,-5.1709,-5.1686,-5.1794,-5.1789,-5.1795,-5.1767,-5.1771,-5.1773,-5.1761,-5.1701,0,0,0,0,0,-5.1119,-5.1175,-5.1253,-5.131,-5.1337,-5.1397,-5.1432,-5.146,-5.1519,-5.1542,-5.1592,-5.1646,-5.1703,-5.1739,-5.1795,-5.1864,-5.188,-5.189,-5.1892,-5.1893,-5.1898,-5.1936,-5.1942,-5.1887,-5.1887,-5.1887,0,0,-5.1121,-5.1179,-5.1211,-5.1304,-5.1351,-5.1406,-5.1416,-5.1474,-5.1515,-5.155,-5.1619,-5.1658,-5.1722,-5.1791,-5.1824,-5.1823,-5.1917,-5.1897,-5.1898,-5.1902,-5.194,-5.1945,-5.195,-5.1889,-5.1889,-5.1888,0,0,-5.1153,-5.1203,-5.1256,-5.1304,-5.1375,-5.1414,-5.1427,-5.1503,-5.1531,-5.1602,-5.1629,-5.1678,-5.1775,-5.182,-5.1855,-5.1906,-5.1923,-5.1923,-5.1932,-5.197,-5.1974,-5.1978,-5.1995,-5.2001,-5.1928,-5.1928,-5.1928,0,-5.1146,-5.1232,-5.128,-5.1338,-5.1378,-5.1415,-5.1468,-5.1511,-5.1596,-5.1622,-5.1621,-5.1744,-5.179,-5.187,-5.1883,-5.1911,-5.1925,-5.1914,-5.197,-5.1974,-5.1979,-5.1995,-5.2002,-5.1928,-5.1928,-5.1928,-5.1928,0,-5.1219,-5.1279,-5.1313,-5.1397,-5.1441,-5.1496,-5.1551,-5.1589,-5.1615,-5.1654,-5.1725,-5.1782,-5.1851,-5.1872,-5.1897,-5.1956,-5.1953,-5.196,-5.1956,-5.1982,-5.1999,-5.2006,-5.1927,-5.1927,-5.1927,-5.1927,0,0,-5.123,-5.1342,-5.1353,-5.1392,-5.1474,-5.152,-5.1577,-5.1646,-5.1678,-5.1736,-5.1783,-5.1865,-5.1873,-5.1913,-5.1943,-5.1976,-5.2012,-5.1979,-5.1981,-5.1982,-5.208,-5.2073,-5.208,-5.2025,-5.2026,-5.2027,-5.2074,0,-5.1272,-5.1376,-5.1422,-5.1504,-5.1559,-5.1597,-5.1646,-5.1701,-5.1739,-5.1791,-5.1833,-5.189,-5.1896,-5.1921,-5.1955,-5.2,-5.2032,-5.1998,-5.2067,-5.2069,-5.2048,-5.2089,-5.2081,-5.2123,-5.2081,-5.2082,-5.2083,0,-5.1333,-5.1393,-5.1482,-5.1559,-5.1583,-5.1627,-5.1694,-5.1744,-5.1806,-5.1832,-5.1879,-5.1908,-5.1967,-5.1961,-5.2043,-5.2018,-5.205,-5.2077,-5.2079,-5.2085,-5.2076,-5.2094,-5.2137,-5.2142,-5.2094,-5.2093,-5.2092,0,-5.133,-5.1434,-5.1501,-5.1533,-5.1624,-5.1653,-5.1692,-5.1755,-5.1794,-5.1852,-5.1878,-5.1942,-5.1976,-5.2025,-5.207,-5.2061,-5.2148,-5.2145,-5.2169,-5.2168,-5.2183,-5.2181,-5.223,-5.2207,-5.2207,-5.2207,-5.2207,0,-5.1371,-5.1423,-5.1501,-5.1541,-5.1601,-5.1653,-5.171,-5.1752,-5.1807,-5.1856,-5.1892,-5.1936,-5.1994,-5.2046,-5.2081,-5.2143,-5.2159,-5.218,-5.2189,-5.2176,-5.2173,-5.2196,-5.2193,-5.2208,-5.2208,-5.2208,-5.2207,0,-5.1377,-5.1431,-5.1506,-5.1587,-5.1609,-5.1649,-5.1718,-5.1758,-5.18,-5.1861,-5.1878,-5.1942,-5.2005,-5.2056,-5.2137,-5.2161,-5.2226,-5.2236,-5.2205,-5.2209,-5.223,-5.2226,-5.2293,-5.2304,-5.2275,-5.2275,-5.2275,0,-5.1398,-5.1439,-5.1526,-5.1562,-5.1601,-5.1658,-5.1699,-5.1752,-5.1793,-5.1869,-5.1899,-5.1965,-5.202,-5.2118,-5.2171,-5.2234,-5.2245,-5.2264,-5.2254,-5.2241,-5.2244,-5.224,-5.2244,-5.2264,-5.2264,-5.2264,-5.2264,0,-5.1429,-5.1454,-5.1512,-5.158,-5.1628,-5.1684,-5.174,-5.1767,-5.183,-5.1874,-5.1939,-5.1982,-5.2067,-5.2131,-5.2199,-5.2238,-5.2261,-5.2268,-5.2276,-5.2263,-5.2242,-5.2252,-5.2205,-5.2265,-5.2265,-5.2265,-5.2265,-5.2265,-5.1443,-5.1481,-5.1548,-5.1612,-5.166,-5.1712,-5.1754,-5.1802,-5.1858,-5.1932,-5.196,-5.2027,-5.209,-5.2185,-5.2224,-5.2276,-5.2278,-5.2291,-5.2294,-5.2296,-5.2294,-5.2236,-5.2289,-5.2289,-5.2289,-5.2289,-5.2289,0,-5.1474,-5.152,-5.1578,-5.1657,-5.1706,-5.1727,-5.1791,-5.183,-5.1889,-5.1947,-5.2001,-5.2076,-5.2139,-5.2199,-5.2264,-5.2295,-5.2307,-5.231,-5.2307,-5.2315,-5.2289,-5.2274,-5.2299,-5.2299,-5.2299,-5.2299,-5.2299,-5.2299,-5.1497,-5.1563,-5.1597,-5.1687,-5.1732,-5.18,-5.1834,-5.1882,-5.1928,-5.2011,-5.2064,-5.2103,-5.2161,-5.2232,-5.229,-5.2306,-5.2328,-5.2328,-5.2346,-5.2319,-5.2317,-5.2316,-5.2302,-5.2333,-5.2333,-5.2368,-5.2369,-5.2369]},{"header":{"parameterUnit":"m.s-1","parameterCategory":1,"la1":30.2991,"la2":30.254,"lo1":-89.0895,"lo2":-89.0444,"dy":0.0017,"dx":0.0017,"nx":28,"ny":28,"refTime":"2025-04-01T03:00:00:Z","depth":0,"parameterNumber":3,"parameterNumberName":"V-component_of_WINDS"},"data":[0,0,0,0,0,0,0,0,0,0,0,0,0,0,0,0,0,0,0,0,0,0,0,0,0,0,0,0,0,0,0,0,0,0,0,0,0,0,0,0,0,0,0,0,0,0,0,0,0,0,0,0,0,0,0,0,0,0,5.9185,5.9185,0,5.92,5.92,5.92,5.9148,5.9147,5.9145,5.9144,5.9156,5.9158,5.9159,0,0,0,0,0,0,0,0,0,0,0,0,0,5.9111,5.9112,5.9185,5.9185,5.9185,5.92,5.92,5.92,5.9148,5.9147,5.9145,5.9143,5.9155,5.9157,5.9159,0,0,0,0,0,0,0,0,0,0,0,0,0,5.9136,5.9113,5.9185,5.9161,5.916,5.92,5.92,5.92,5.9149,5.9147,5.9144,5.9142,5.9155,5.9157,5.916,5.9222,0,0,5.9168,5.9169,0,0,0,0,0,0,0,0,5.9135,5.9139,5.9165,5.9163,5.9161,5.917,5.9178,5.9207,5.9149,5.9153,5.9144,5.9141,5.9162,5.9164,5.9172,5.9223,5.9223,5.9168,5.917,5.9171,5.9172,0,0,0,0,0,0,0,5.9133,5.9138,5.9191,5.9165,5.9163,5.915,5.9151,5.9183,5.917,5.9152,5.9149,5.9151,5.9161,5.9169,5.9172,5.9224,5.9168,5.917,5.9172,5.9173,5.9328,5.933,0,0,0,0,0,0,5.9135,5.9137,5.919,5.9191,5.9142,5.9153,5.9154,5.9169,5.917,5.9168,5.9153,5.9149,5.9166,5.9169,5.9172,5.9246,5.9171,5.9173,5.9175,5.9325,5.9329,5.9331,0,0,0,0,0,0,5.9133,5.914,5.919,5.9163,5.9168,5.9157,5.9174,5.9171,5.9179,5.917,5.9168,5.9165,5.9164,5.9168,5.9211,5.9245,5.9174,5.9177,5.9323,5.9326,5.933,5.9394,0,0,0,0,0,0,5.9131,5.914,5.9163,5.9164,5.917,5.9229,5.9176,5.9173,5.9184,5.9179,5.918,5.9178,5.9163,5.9207,5.9213,5.9248,5.9179,5.9319,5.9324,5.9329,5.9389,5.9399,5.9409,0,0,0,0,0,5.9129,5.918,5.9165,5.9172,5.92,5.9231,5.9234,5.9216,5.9187,5.9211,5.9206,5.9178,5.9241,5.9212,5.9218,5.9254,5.9317,5.9323,5.9328,5.9384,5.9397,5.9408,0,0,0,0,0,0,5.9182,5.9179,5.9163,5.9216,5.9224,5.9222,5.9251,5.923,5.9246,5.924,5.9216,5.9217,5.9264,5.9263,5.9231,5.9316,5.9274,5.9281,5.9314,5.9326,5.9336,5.9335,5.9181,0,0,0,0,0,5.92,5.9227,5.9223,5.927,5.9275,5.9263,5.9275,5.9261,5.9268,5.9271,5.9269,5.9276,5.9298,5.9312,5.9331,5.9389,5.9388,5.9417,5.9427,5.9435,5.9441,5.9473,5.9485,5.935,5.935,5.935,0,0,5.9237,5.9239,5.9257,5.9281,5.9285,5.9313,5.9266,5.9296,5.9316,5.9275,5.9316,5.9315,5.9321,5.9372,5.9394,5.9373,5.9479,5.9442,5.9449,5.9451,5.948,5.9493,5.9504,5.9354,5.9353,5.9353,0,0,5.9319,5.9323,5.9364,5.937,5.9379,5.9371,5.9381,5.9383,5.938,5.9421,5.9391,5.9415,5.9452,5.9458,5.9466,5.9554,5.9529,5.9561,5.9613,5.9643,5.9654,5.9663,5.9695,5.9706,5.9567,5.9567,5.9567,0,5.9364,5.9405,5.9387,5.942,5.9432,5.9398,5.9439,5.9445,5.9459,5.9468,5.9444,5.9492,5.9493,5.9546,5.9567,5.9575,5.9585,5.956,5.9654,5.9663,5.9672,5.9701,5.9713,5.9571,5.9571,5.957,5.957,0,5.946,5.9489,5.9521,5.9537,5.9552,5.9589,5.9576,5.9593,5.9578,5.9573,5.9615,5.9617,5.9636,5.9647,5.9632,5.9698,5.9685,5.9658,5.9616,5.9689,5.9716,5.9727,5.9576,5.9575,5.9574,5.9573,0,0,5.9574,5.9582,5.9594,5.9601,5.961,5.9631,5.9667,5.9688,5.9703,5.9714,5.9744,5.9777,5.9753,5.9763,5.9748,5.9775,5.9845,5.9745,5.9745,5.9764,5.9918,5.9938,5.9951,5.9829,5.9831,5.9833,5.9917,0,5.9655,5.9717,5.9703,5.9764,5.9791,5.9761,5.9792,5.98,5.9796,5.9818,5.9813,5.9838,5.9804,5.981,5.9836,5.9831,5.9876,5.9825,5.9856,5.9857,5.9855,5.9966,5.9986,6.0066,5.9928,5.993,5.9931,0,5.9757,5.9775,5.9839,5.9845,5.9855,5.9884,5.9902,5.9924,5.9933,5.9928,5.994,5.9921,5.9956,5.9914,5.9962,5.9928,5.994,5.994,5.9943,5.9945,5.9898,5.997,6.0091,6.0103,5.9948,5.9946,5.9945,0,5.9834,5.9874,5.9918,5.9925,5.9933,5.9954,5.9958,5.9964,5.9978,5.9994,6.0003,6.0022,6.0033,6.0048,6.0035,6.0006,6.0085,6.0042,6.0082,6.0083,6.01,6.0099,6.0224,6.0108,6.0108,6.0108,6.0107,0,5.9926,5.9967,5.9953,5.998,6.0025,6.0009,6.0053,6.0053,6.006,6.0086,6.0061,6.0086,6.0067,6.009,6.008,6.0122,6.0126,6.0123,6.012,6.0126,6.0126,6.0133,6.0127,6.0111,6.011,6.011,6.0109,0,6.0019,6.0012,6.0058,6.0062,6.0065,6.0098,6.0101,6.0126,6.0121,6.0155,6.0162,6.0154,6.018,6.0169,6.0196,6.0189,6.0243,6.0232,6.024,6.0237,6.0278,6.0274,6.0411,6.0429,6.0302,6.0303,6.0304,0,6.0078,6.0109,6.0118,6.0135,6.0141,6.0168,6.0182,6.0167,6.0183,6.0197,6.0221,6.0245,6.0264,6.0308,6.0304,6.0325,6.0314,6.0361,6.0317,6.0322,6.0315,6.0314,6.0317,6.037,6.0371,6.0372,6.0373,0,6.0184,6.0179,6.0202,6.0225,6.0243,6.026,6.0274,6.0288,6.0274,6.0294,6.0321,6.0336,6.0365,6.039,6.0409,6.0412,6.039,6.0387,6.0398,6.0403,6.0407,6.0406,6.0264,6.0384,6.0383,6.0382,6.0381,6.0381,6.0262,6.0289,6.03,6.0326,6.0336,6.035,6.0374,6.0374,6.0397,6.042,6.041,6.0442,6.0451,6.0475,6.0481,6.0505,6.0487,6.0502,6.0505,6.0509,6.0515,6.0404,6.0509,6.0508,6.0508,6.0508,6.0507,0,6.0366,6.0373,6.0398,6.0419,6.0441,6.042,6.0435,6.0454,6.0483,6.0494,6.0514,6.0546,6.057,6.0569,6.0592,6.0612,6.0603,6.0618,6.0616,6.0617,6.053,6.0519,6.0625,6.0625,6.0625,6.0625,6.0625,6.0625,6.0423,6.0468,6.0465,6.0515,6.052,6.0553,6.0563,6.0576,6.0585,6.0623,6.0643,6.0643,6.0649,6.0672,6.0694,6.0693,6.0702,6.0721,6.0717,6.0635,6.0623,6.0612,6.0602,6.0724,6.0724,6.0802,6.0803,6.0803]}]]